www.pogodaiklimat.ru

Погода и климат >> Архив погоды >> Индонезия >> Синтанг


ПОГОДА в Синтанге

  • Прогноз погоды в Синтанге
  • Монитор погоды в Синтанге

АРХИВ ПОГОДЫ в Синтанге

Время (UTC), дата Ветер
(напр.,м/с)
 
Видим.   Явления Облачность Т
(С)
Тd
(С)
f
(%)
Тe
(С)
Тes
(С)
Комфортность P
(гПа)
Po
(гПа)
Тmin
(С)
Tmax
(С)
R
(мм)
R24
(мм)
S
(см)
15 13.06 штиль 0 5000 м мгла 8/4 420 м
[Cu hum Ac trans Ci fib]
+23.7 +22.7 94 +31 +31 очень
душно
1013.0 1009.8
18 13.06 В 3 5000 м мгла 8/4 450 м
[Sc Ac trans Ci fib]
+22.8 +22.2 96 +31 +31 очень
душно
1011.0 1007.8
21 13.06 В 3 3000 м слаб. дождь 10/5 400 м
[Cu hum As op]
+22.7 +22.4 98 +31 +31 очень
душно
1009.8 1006.6 0.2
00 14.06 ЮВ 2 5000 м дымка {дождь} 8/4 300 м
[Sc Ac As Ci fib]
+22.9 +22.7 99 +31 +33 очень
душно
1011.2 1008.0 +22.2 0.8
03 14.06 штиль 0 7000 м 8/4 400 м
[Cu hum Ac trans Ci fib]
+26.5 +22.5 79 +35 +43 очень
душно
1011.8 1008.6
06 14.06 штиль 0 8000 м 6/4 420 м
[Cu hum Ac trans Ci fib]
+30.0 +22.5 64 +39 +50 очень
душно
1008.4 1005.2
09 14.06 штиль 0 9000 м 5/3 420 м
[Cu hum Ac trans Ci fib]
+31.1 +22.9 62 +41 +44 опасность
перегрева
1006.5 1003.3
12 14.06 штиль 0 5000 м мгла 5/3 420 м
[Cu hum Ac trans Ci fib]
+26.0 +24.5 91 +36 +36 очень
душно
1009.0 1005.8 +31.4
15 14.06 штиль 0 5000 м мгла 5/3 420 м
[Cu hum Ac trans Ci fib]
+24.8 +24.6 99 +35 +35 очень
душно
1011.0 1007.8
18 14.06 штиль 0 4000 м дымка 5/3 420 м
[Cu hum Ac trans Ci fib]
+24.4 +23.8 96 +33 +33 очень
душно
1010.1 1006.9
21 14.06 штиль 0 3000 м дымка 4/3 420 м
[Cu hum Ac trans Ci fib]
+23.9 +23.8 99 +32 +32 очень
душно
1009.8 1006.6
00 15.06 штиль 0 7000 м 4/1 420 м
[Cu hum Ac trans Ci fib]
+25.3 +23.8 91 +34 +37 очень
душно
1010.9 1007.7 +22.9
03 15.06 ЮЗ 2 8000 м 6/5 420 м
[Cu hum Ac trans Ci fib]
+31.0 +23.9 66 +43 +50 опасность
перегрева
1010.9 1007.7
06 15.06 С 2 8000 м 8/6 420 м
[Cu hum Ac trans Ci fib]
+33.3 +23.0 55 +44 +49 опасность
перегрева
1008.0 1004.8
09 15.06 ЮЗ 3 9000 м 5/3 420 м
[Cu hum Ac trans Ci fib]
+34.2 +23.2 53 +45 +46 опасность
перегрева
1006.4 1003.2
12 15.06 ЮВ 3 5000 м зарница 6/4 400 м
[Cb cap Ac As Ci fib]
+27.5 +24.0 81 +38 +38 очень
душно
1008.6 1005.4 +34.4
15 15.06 ЮВ 2 5000 м слаб. дождь 6/6 400 м
[Cb cap Ac As Ci fib]
+24.9 +23.6 92 +34 +34 очень
душно
1010.9 1007.7 0.0
18 15.06 штиль 0 3000 м слаб. дождь 6/6 420 м
[Cu med, cong Ac As Ci fib]
+24.1 +23.3 95 +32 +32 очень
душно
1010.4 1007.2 0.6
21 15.06 4000 м дымка н/о +23.3 +23.1 99 +33 +33 очень
душно
1009.8 1006.7 0.2
00 16.06 штиль 0 6000 м мгла {дождь} 8/4 450 м
[Sc Ac trans]
+23.9 +23.7 99 +32 +34 очень
душно
1011.1 1007.9 +23.0 0.8
03 16.06 СВ 2 8000 м 8/3 400 м
[Cu hum Ac trans Ci fib]
+29.2 +24.8 77 +42 +49 опасность
перегрева
1011.3 1008.1
06 16.06 штиль 0 9000 м 5/5 420 м
[Cu med, cong Ac trans Ci fib]
+32.6 +23.5 59 +44 +55 опасность
перегрева
1008.9 1005.7
09 16.06 СЗ 2 8000 м 6/5 420 м
[Cu med, cong As trans Ci fib]
+33.6 +23.0 54 +44 +45 опасность
перегрева
1007.4 1004.2
12 16.06 штиль 0 4000 м гроза без осадков 9/6 400 м
[Cb cap As op Ci fib]
+25.7 +24.3 92 +36 +36 очень
душно
1009.7 1006.5 +33.8 0.8
15 16.06 ЮВ 2 4000 м зарница 9/6 400 м
[Cb cap As op Ci fib]
+24.7 +23.7 94 +34 +34 очень
душно
1012.0 1008.8
18 16.06 штиль 0 3000 м дымка {гроза, дождь} 10/5 400 м
[Cu hum As op]
+23.8 +23.7 99 +32 +32 очень
душно
1010.6 1007.4 0.0
21 16.06 штиль 0 3000 м дымка 10/5 400 м
[Sc diur, vesp As op]
+23.6 +23.5 99 +32 +32 очень
душно
1009.8 1006.6
00 17.06 ЮВ 3 5000 м мгла 6/3 400 м
[Cu hum Ac trans Ci fib]
+24.5 +23.6 95 +33 +34 очень
душно
1011.1 1007.9 +23.2 0.8
03 17.06 Ю 5 9000 м 5/5 420 м
[Cu hum Ac trans Ci sp]
+29.2 +23.4 71 +40 +44 очень
душно
1011.6 1008.4
06 17.06 Ю 3 9000 м 5/5 420 м
[Cu med, cong Ci fib]
+31.8 +23.1 60 +42 +49 опасность
перегрева
1009.4 1006.2
09 17.06 В 2 7000 м 4/3 420 м
[Cu med, cong Ac trans Ci fib]
+32.3 +23.3 59 +43 +45 опасность
перегрева
1008.1 1004.9
12 17.06 штиль 0 4000 м мгла 4/3 420 м
[Cu hum Ac trans Ci fib]
+27.0 +25.1 89 +39 +39 очень
душно
1009.9 1006.7 +32.4
15 17.06 штиль 0 4000 м мгла 4/3 420 м
[Cu hum Ac trans Ci fib]
+25.6 +24.7 95 +36 +36 очень
душно
1011.3 1008.1
18 17.06 штиль 0 4000 м дымка 5/4 420 м
[Cu hum Ac As Ci fib]
+25.1 +24.5 96 +35 +35 очень
душно
1010.7 1007.5
21 17.06 штиль 0 4000 м дымка 8/5 420 м
[Cu hum Ac As Ci fib]
+24.5 +24.2 98 +34 +34 очень
душно
1010.5 1007.3
00 18.06 штиль 0 5000 м мгла {дождь} 8/5 420 м
[Sc Ac trans]
+25.2 +24.2 94 +35 +36 очень
душно
1011.2 1008.0 +24.2 0.0
03 18.06 В 2 7000 м 8/5 420 м
[Frnb Ac trans]
+29.7 +24.5 74 +42 +47 опасность
перегрева
1010.1 1007.5
06 18.06 З 2 8000 м 8/5 420 м
[Cu hum Ac trans]
+32.7 +24.9 64 +46 +51 опасность
перегрева
1008.4 1005.2
09 18.06 штиль 0 9000 м 6/4 420 м
[Cu med, cong Ac trans Ci fib]
+31.8 +25.3 69 +46 +48 опасность
перегрева
1007.0 1003.8
12 18.06 В 2 4000 м в посл. час дождь 8/5 360 м
[Cb cap Ac As]
+25.7 +24.3 92 +36 +36 очень
душно
1008.6 1005.4 +33.0 5
15 18.06 штиль 0 4000 м дымка 6/4 400 м
[Cu hum Ac As Ci fib]
+24.4 +23.5 95 +33 +33 очень
душно
1010.6 1007.4
18 18.06 штиль 0 4000 м дымка 8/4 400 м
[Cu hum Ac As Ci fib]
+23.6 +34.0 100 +32 +32 очень
душно
1006.8 1010.0 0.2
21 18.06 штиль 0 4000 м дымка 9/5 400 м
[Cu hum Ac As Ci fib]
+23.4 +23.3 99 +33 +33 очень
душно
1009.9 1006.7
00 19.06 штиль 0 5000 м дымка 10/5 420 м
[Sc diur, vesp Ac As]
+24.1 +23.9 99 +33 +33 очень
душно
1011.1 1007.9 +23.2 5
03 19.06 В 2 8000 м 9/5 420 м
[Sc diur, vesp Ac As Ci fib]
+28.4 +24.2 78 +40 +45 очень
душно
1011.3 1008.0
06 19.06 Ю 3 9000 м 9/5 420 м
[Cu hum Ac As Ci fib]
+31.2 +24.0 66 +43 +47 опасность
перегрева
1008.8 1005.6
09 19.06 В 2 8000 м в посл. час дождь 5/3 420 м
[Cu hum Ac trans Ci fib]
+27.0 +24.7 87 +38 +40 очень
душно
1007.0 1003.8 0.0
12 19.06 СЗ 6 1000 м дождь 10/6 360 м
[Cb cap As op]
+23.8 +23.4 98 +32 +32 очень
душно
1010.6 1007.4 +31.9 20
15 19.06 штиль 0 2000 м слаб. дождь 10/8 360 м
[Cb cap As op]
+22.8 +22.5 98 +31 +31 очень
душно
1011.4 1008.2 12
18 19.06 штиль 0 2000 м слаб. дождь 10/8 360 м
[Cb cap As op]
+22.6 +22.6 100 +31 +31 очень
душно
1010.6 1007.4 0.0
21 19.06 штиль 0 4000 м дымка 10/6 400 м
[Cb cap As op]
+22.5 +22.5 100 +30 +30 очень
душно
1010.1 1006.9 0.2
00 20.06 ЮВ 2 5000 м дымка {дождь} 9/6 420 м
[Sc diur, vesp Ac As]
+22.9 +22.9 100 +32 +32 очень
душно
1011.3 1008.1 +22.4 33
03 20.06 Ю 3 7000 м 9/6 360 м
[Cu hum Ac As]
+26.0 +23.0 84 +35 +37 очень
душно
1011.3 1008.0
06 20.06 Ю 3 9000 м 6/5 400 м
[Cu hum Ac As]
+30.1 +23.1 66 +40 +46 очень
душно
1009.2 1006.0
09 20.06 штиль 0 9000 м 5/4 400 м
[Cu hum Ac trans]
+30.1 +23.4 67 +41 +43 опасность
перегрева
1007.5 1004.3
12 20.06 штиль 0 4000 м мгла 4/1 420 м
[Cu hum Ac trans Ci fib]
+25.4 +24.2 93 +35 +35 очень
душно
1008.7 1005.5 +31.4

 

Местоположение метеостанции Синтанг (Индонезия): широта 0.12 долгота 111.53 высота над уровнем моря 30 м.

В архиве по умолчанию представлена погода в Синтанге за последнюю неделю. Архивные данные за месяц целиком и за предыдущие месяцы, начиная с января 2011 года, Вы можете получить, выбрав интересующий диапазон дат из раскрывающегося списка и нажав кнопку "Ввод!".


*Определитесь, кто Вы:
робот инопланетянин человек

Внимание! Время в таблицах - всемирное. Для получения местного времени необходимо прибавить поправку, которая равна 7 ч.

Смотрите также архив погоды в соседних городах и на ближайших метеорологических станциях:

Погода в Нангапинохе (Индонезия) (59 км)
Погода на Путусиббау (Индонезия) (176 км)
Погода в Кучинге (Малайзия) (202 км)
Погода в Понтианаке (Индонезия) (239 км)
Погода в Сибу (Малайзия) (248 км)
Погода в Кетапанге (Индонезия) (280 км)
Погода в Паоанкарая (Индонезия) (302 км)
Погода в Парохе (Индонезия) (309 км)
Погода в Пангкалан-Буне (Индонезия) (314 км)
Погода в Бинталу (Малайзия) (381 км)

Пояснения к столбцам:

Ветер - указаны скорость ветра в м/с - средняя за 10 мин, порывы в срок и между сроками (в фигурных скобках) и направление, откуда дует ветер: С - северный, СВ - северо-восточный, В - восточный, ЮВ - юго-восточный, Ю - южный, ЮЗ - юго-западный, З - западный, СЗ - северо-западный.
Видимость - горизонтальная дальность видимости в метрах или километрах. При видимости от 1 до 10 км при отсутствии осадков обычно наблюдается дымка, при ухудшении видимости до 1 км и менее - туман. В сухую погоду видимость может ухудшаться дымом, пылью или мглою.
Явления - указаны атмосферные явления, наблюдавшиеся в срок или в последний час перед сроком; фигурными скобками обозначены явления, наблюдавшиеся между сроками (за 1-3 часа до срока); квадратными скобками обозначены град или гололедные отложения с указанием их диаметра в мм.
Облачность - указаны через наклонную черту общая и нижняя облачность в баллах и высота нижней границы облаков в метрах; квадратными скобками обозначены формы облаков: Ci - перистые, Cs - перисто-слоистые, Cc - перисто-кучевые, Ac - высококучевые, As - высокослоистые, Sc - слоисто-кучевые, Ns - слоисто-дождевые, Cu - кучевые, Cb - кучево-дождевые. Подробнее классификацию облаков см. в Атласе облаков (PDF).
T - Температура воздуха - температура, измеренная на высоте 2 м над землей.
Td - Температура точки росы - температура, при понижении до которой содержащийся в воздухе водяной пар достигнет насыщения.
f - Относительная влажность воздуха - влажноcть воздуха, измеренная на высоте 2 м над землей.
Te - Эффективная температура - температура, которую ощущает одетый по сезону человек в тени. Характеристика душности погоды. При расчете учитывается влияние влажности воздуха и скорости ветра на теплоощущения человека.
Tes - Эффективная температура на солнце - температура, которую ощущает человек, с поправкой на солнечный нагрев. Характеристика знойности погоды. Зависит от высоты солнца над горизонтом, облачности и скорости ветра. Ночью, в пасмурную погоду, а также при ветре 12 м/с и более поправка равна нулю.
P - Атмосферное давление - приведенное к уровню моря атмосферное давление.
Po - Атмосферное давление - измеренное на уровне метеостанции атмосферное давление.
Tmin - Минимальная температура - минимум температуры воздуха на высоте 2 м над землей.
Tmax - Максимальная температура - максимум температуры воздуха на высоте 2 м над землей.
R - Количество осадков - Количество выпавших осадков за период времени, мм. При наведении курсора мыши на число - период времени, за который выпало указанное количество осадков.
R24 - Количество осадков - Количество выпавших осадков за 24 часа, мм.
S - Снежный покров - Высота снежного покрова, см. При наведении курсора мыши на число - состояние снежного покрова и степень покрытия местности в баллах.